Date,TemperatureHighF,TemperatureAvgF,TemperatureLowF,DewpointHighF,DewpointAvgF,DewpointLowF,HumidityHigh,HumidityAvg,HumidityLow,PressureMaxIn,PressureMinIn,WindSpeedMaxMPH,WindSpeedAvgMPH,GustSpeedMaxMPH,PrecipitationSumIn
2013-2-1,42.0,39.2,34.0,37.0,33.0,30.0,89,78,60,29.85,29.27,0,-999,0,0.00
2013-2-2,41.0,38.7,35.0,38.0,34.1,31.0,89,83,75,30.10,29.65,0,-999,0,0.00
2013-2-3,49.0,45.1,42.0,46.0,40.2,34.0,95,83,65,29.64,29.20,0,-999,0,0.00
2013-2-4,40.0,37.7,35.0,38.0,32.6,28.0,96,82,67,29.28,28.97,0,-999,0,0.00
2013-2-5,45.0,41.1,35.0,39.0,33.6,27.0,87,75,57,29.71,28.95,0,-999,0,0.00
2013-2-6,42.0,40.1,37.0,34.0,31.8,28.0,89,72,61,30.15,29.75,0,-999,0,0.00
2013-2-7,36.0,36.0,36.0,33.0,33.0,33.0,89,88,88,30.13,30.11,0,-999,0,0.00
2013-2-8,44.0,43.2,42.0,43.0,40.3,37.0,97,89,76,0.00,40.00,0,-999,0,0.00
2013-2-9,45.0,43.2,40.0,45.0,42.1,36.0,99,96,83,0.00,40.00,0,-999,0,0.00
2013-2-10,41.0,40.1,39.0,35.0,33.2,30.0,80,76,70,0.00,40.00,0,-999,0,0.00
2013-2-11,42.0,39.9,38.0,36.0,32.0,27.0,86,74,59,0.00,40.00,0,-999,0,0.00
2013-2-12,41.0,39.6,37.0,31.0,27.9,25.0,67,62,54,0.00,40.00,0,-999,0,0.00
2013-2-13,42.0,39.2,36.0,37.0,33.7,28.0,91,81,63,0.00,40.00,0,-999,0,0.00
2013-2-18,48.0,41.9,37.0,35.0,31.7,29.0,75,67,53,0.00,40.00,0,-999,0,0.00
2013-2-19,46.0,40.7,30.0,38.0,32.4,25.0,84,72,58,0.00,40.00,0,-999,0,0.00
2013-2-20,45.0,42.9,38.0,39.0,35.6,31.0,84,75,71,0.00,40.00,0,-999,0,0.00
2013-2-21,40.0,37.2,33.0,30.0,27.1,25.0,72,67,56,0.00,40.00,0,-999,0,0.00
2013-2-22,38.0,34.6,32.0,27.0,23.1,20.0,70,62,56,0.00,40.00,0,-999,0,0.00
2013-2-23,40.0,34.1,30.0,34.0,26.3,23.0,89,73,52,0.00,40.00,0,-999,0,0.00
2013-2-24,44.0,37.6,30.0,31.0,28.1,24.0,85,69,53,0.00,40.00,0,-999,0,0.00
2013-2-25,45.0,39.3,32.0,34.0,30.9,27.0,83,72,54,0.00,40.00,0,-999,0,0.00
2013-2-26,45.0,34.0,30.0,31.0,27.4,25.0,84,77,55,0.00,40.00,0,-999,0,0.00
2013-2-27,47.0,44.6,43.0,40.0,38.9,38.0,89,81,72,0.00,40.00,0,-999,0,0.00
2013-2-28,47.0,44.8,42.0,46.0,42.2,37.0,100,91,79,0.00,40.00,0,-999,0,0.00